This demonstration page uses our WeatherBlox Daily Observations layout. Learn more.

Left ArrowRight Arrow

44.8408, -93.29828

Hourly Observations for July 19, 2016

Temp ( °F °C ) Dew Point ( °F °C ) Humidity (%) Winds ( mph kmh ) Pressure ( in mb ) Visibility ( mi km ) Precip ( " mm )
12:53 am 00:53 Clear 73 22.8 63 17.2 71 71 Calm 30.16 1021 10 16 0.00 0.00
1:53 am 01:53 Clear 73 22.8 62 16.7 69 69 Calm 30.16 1021 10 16 0.00 0.00
2:53 am 02:53 Clear 71 21.7 62 16.7 73 73 ENE 3 6 30.15 1021 10 16 0.00 0.00
3:53 am 03:53 Clear 69 20.6 63 17.2 81 81 SE 5 7 30.16 1021 10 16 0.00 0.00
4:53 am 04:53 Mostly Clear 70 21.1 62 16.7 76 76 SE 3 6 30.17 1022 10 16 0.00 0.00
5:53 am 05:53 Partly Cloudy 70 21.1 62 16.7 76 76 ENE 6 9 30.17 1022 10 16 0.00 0.00
6:53 am 06:53 Mostly Cloudy 71 21.7 62 16.7 73 73 SE 6 9 30.17 1022 10 16 0.00 0.00
7:53 am 07:53 Partly Cloudy 73 22.8 63 17.2 71 71 SE 6 9 30.17 1022 10 16 0.00 0.00
8:53 am 08:53 Mostly Cloudy 76 24.4 66 18.9 72 72 SE 7 11 30.16 1022 10 16 0.00 0.00
9:53 am 09:53 Mostly Cloudy 80 26.7 69 20.6 69 69 SSE 7 11 30.16 1021 10 16 0.00 0.00
10:53 am 10:53 Mostly Cloudy 82 27.8 70 21.1 67 67 S 9 15 30.15 1021 10 16 0.00 0.00
11:53 am 11:53 Mostly Cloudy 85 29.4 69 20.6 59 59 SE 16 26 30.13 1020 10 16 0.00 0.00
12:53 pm 12:53 Mostly Sunny 85 29.4 70 21.1 61 61 SSE 16 26 30.11 1020 10 16 0.00 0.00
1:53 pm 13:53 Partly Cloudy 86 30 69 20.6 57 57 SE 17 28 30.10 1019 10 16 0.00 0.00
2:53 pm 14:53 Mostly Cloudy 86 30 68 20 55 55 S 15 24 30.11 1020 10 16 0.00 0.00
3:53 pm 15:53 Partly Cloudy 86 30 68 20 55 55 SSW 12 19 30.11 1020 10 16 0.00 0.00
4:53 pm 16:53 Mostly Sunny 86 30 66 18.9 51 51 SSW 10 17 30.10 1019 10 16 0.00 0.00
5:53 pm 17:53 Mostly Sunny 86 30 68 20 55 55 S 12 19 30.09 1019 10 16 0.00 0.00
6:53 pm 18:53 Mostly Sunny 84 28.9 68 20 59 59 S 12 19 30.07 1018 10 16 0.00 0.00
7:53 pm 19:53 Mostly Sunny 84 28.9 66 18.9 55 55 S 12 19 30.05 1018 10 16 0.00 0.00
8:53 pm 20:53 Partly Cloudy 79 26.1 67 19.4 67 67 SE 8 13 30.04 1017 10 16 0.00 0.00
9:53 pm 21:53 Mostly Clear 78 25.6 67 19.4 69 69 SSE 9 15 30.04 1017 10 16 0.00 0.00
10:53 pm 22:53 Mostly Clear 77 25 66 18.9 69 69 S 12 19 30.05 1018 10 16 0.00 0.00
11:53 pm 23:53 Mostly Clear 76 24.4 66 18.9 72 72 S 13 20 30.07 1018 10 16 0.00 0.00

Powered by AerisWeather